Temperature
19 19 19 19 19 19 19 20 20 20 20 20 20 20 20 20 20 20 20 20 19 19 19 19 19 19 19 19 19 19 19 19 19 18 18 18 19 19 18 18 18 18 18
19 19 19 19 19 19 20 20 20 20 20 20 20 20 20 20 20 20 20 19 19 19 19 19 19 19 19 19 19 19 19 18 19 18 18 18 18 18 18 18 18 18 18
19 19 19 19 19 19 19 20 20 20 20 20 20 20 20 20 20 20 19 19 19 19 19 19 19 19 19 19 19 19 19 18 18 18 18 18 18 18 18 18 18 18 18
19 19 19 19 19 19 19 19 20 20 20 20 20 20 20 20 20 19 19 19 19 19 19 19 19 19 19 19 19 19 19 18 18 18 18 18 18 18 18 18 18 18 18
18 18 19 19 19 19 19 19 19 19 19 19 20 20 19 19 19 19 19 19 19 19 19 19 19 19 19 19 19 19 18 18 18 18 18 18 18 18 18 18 18 18 18
18 18 18 18 19 19 19 19 19 19 19 19 19 19 19 19 19 19 19 19 19 19 19 19 19 19 19 19 19 19 18 18 18 18 18 18 18 18 18 18 18 18 18
18 18 18 18 18 18 18 18 18 18 18 18 19 19 19 19 19 19 19 19 19 19 19 19 19 19 19 19 19 18 18 18 18 18 18 18 18 18 18 18 18 18 18
18 18 18 18 18 18 18 18 18 18 18 18 18 18 18 18 18 19 19 19 19 19 19 19 19 19 19 19 19 18 18 18 18 18 18 18 18 18 18 18 18 18 18
18 18 18 17 17 17 17 17 17 17 17 17 17 17 18 18 18 18 18 18 18 19 19 19 19 19 19 19 19 18 18 18 18 18 18 18 18 18 18 18 18 18 18
18 17 17 17 17 17 17 17 17 17 17 17 17 17 17 17 17 18 18 18 18 18 18 18 18 19 19 19 19 18 18 18 18 18 18 18 18 18 18 18 18 18 18
17 17 17 17 17 16 16 16 16 16 16 16 16 16 17 17 17 17 17 17 18 18 18 18 18 18 18 18 18 18 18 18 18 18 18 18 18 18 18 18 18 18 18
17 17 17 17 16 16 16 16 16 16 16 16 16 16 16 16 16 17 17 17 17 17 18 18 18 18 18 18 18 18 18 18 18 18 18 18 18 18 18 18 18 18 18
17 17 16 16 16 16 16 15 15 15 15 15 15 15 16 16 16 16 16 16 17 17 17 17 17 17 18 18 18 18 18 18 18 18 18 18 18 18 18 18 18 18 18
17 17 16 16 16 15 15 15 15 15 15 15 15 15 15 15 15 15 16 16 16 16 17 17 17 17 17 18 18 18 18 18 18 18 18 18 18 18 18 18 18 18 18
17 16 16 16 15 15 15 15 14 14 15 15 15 15 15 15 15 15 15 15 16 16 16 16 17 17 17 17 18 18 18 18 18 18 18 18 18 18 18 18 18 18 18
17 16 16 15 15 15 14 14 14 14 14 14 14 15 15 15 15 15 15 15 15 15 16 16 16 16 17 17 17 17 18 18 18 18 18 18 18 18 18 18 18 18 18
17 16 15 15 15 14 14 14 14 14 14 14 14 14 14 14 14 14 15 15 15 15 15 16 16 16 16 17 17 17 17 18 18 18 18 18 18 18 18 18 18 18 18
17 16 15 15 15 14 14 14 13 13 13 14 14 14 14 14 14 14 14 14 15 15 15 15 15 16 16 16 17 17 17 17 18 18 18 18 18 18 18 18 18 18 18
16 16 15 15 14 14 14 13 13 13 13 13 13 13 14 14 14 14 14 14 14 14 15 15 15 15 16 16 16 17 17 17 17 17 17 18 18 18 18 18 18 18 18
16 16 15 15 14 14 14 13 13 13 13 13 13 13 13 13 13 14 14 14 14 14 14 15 15 15 15 16 16 16 17 17 17 17 17 18 18 18 18 18 18 18 18
16 15 15 14 14 14 13 13 13 13 13 13 13 13 13 13 13 13 13 13 14 14 14 14 14 15 15 15 15 16 16 17 17 17 17 17 17 18 18 18 18 18 18
16 15 15 14 14 13 13 13 13 13 12 13 13 13 13 13 13 13 13 13 13 13 14 14 14 14 15 15 15 15 16 17 17 17 17 17 17 18 18 18 18 18 18
16 15 15 14 14 13 13 13 13 13 13 13 13 12 12 12 12 12 13 13 13 13 13 13 14 14 14 15 14 15 15 16 16 17 17 17 17 17 18 18 18 18 18
16 15 15 14 14 13 13 13 13 12 12 12 12 12 12 12 12 12 12 12 12 13 13 13 13 14 14 14 14 14 14 15 15 16 17 17 17 17 18 18 18 18 18
16 16 15 14 14 13 13 13 12 12 12 12 12 12 12 12 12 12 12 12 12 12 12 13 13 13 13 14 14 14 14 14 15 15 16 16 17 17 17 17 17 18 18
16 16 15 14 14 13 13 13 13 12 12 12 12 12 12 12 12 12 12 12 12 12 12 12 12 13 13 13 13 14 14 14 14 14 15 15 16 17 17 17 17 17 17
Wind_Speed
4 8 12 11 10 9 9 8 8 8 8 7 7 7 7 7 7 7 6 6 6 6 6 7 7 7 7 7 7 7 7 7 7 7 7 7 7 8 9 9 9 8 10
7 10 12 12 11 9 8 8 8 8 7 7 6 6 6 6 5 5 4 4 4 4 5 5 5 5 5 5 5 6 6 6 5 4 4 5 6 7 9 9 9 8 9
8 9 11 11 10 9 8 7 7 6 6 5 5 5 5 4 4 4 3 3 3 3 3 3 3 3 3 3 4 4 5 5 5 4 2 3 4 6 7 8 9 9 9
9 9 9 10 9 8 7 6 6 6 5 5 5 5 4 4 3 3 2 2 2 2 2 2 2 1 2 2 2 3 4 5 5 4 1 3 4 6 7 7 8 8 8
8 8 9 9 8 7 6 5 5 5 4 4 5 5 5 5 4 4 4 3 3 2 2 1 1 0 0 1 1 2 3 5 5 4 1 4 5 7 7 7 7 7 8
6 7 8 8 7 6 5 4 4 4 4 4 5 5 6 6 6 6 5 5 4 4 3 3 3 2 2 2 2 3 4 5 5 3 1 5 6 7 7 7 7 7 7
5 6 6 7 6 5 4 3 3 3 4 4 5 6 6 7 7 7 7 6 6 6 6 5 5 4 4 4 4 4 5 5 4 1 1 5 7 8 8 8 7 7 7
5 4 4 5 4 3 3 2 3 3 4 5 6 6 7 7 8 8 8 8 8 8 8 7 7 6 6 6 5 5 6 5 3 1 1 6 8 9 9 9 8 7 7
4 4 3 2 1 0 1 2 3 4 5 5 6 7 7 8 9 9 9 9 9 9 9 9 8 8 8 8 7 7 7 7 4 3 3 6 8 9 9 9 8 7 7
3 2 2 2 2 2 2 3 4 5 6 6 7 8 8 8 9 9 10 10 10 10 10 10 10 10 9 9 9 9 9 8 5 4 4 7 10 10 10 10 9 8 7
3 1 2 2 2 2 2 3 4 6 7 7 7 8 8 7 7 8 9 11 11 12 11 10 10 11 10 10 10 10 9 7 6 5 5 8 11 11 11 11 10 9 8
2 2 2 2 2 3 4 4 5 5 7 7 7 7 7 6 7 7 8 11 12 12 12 11 11 11 10 8 9 9 7 7 7 6 7 11 13 13 13 12 11 10 9
3 3 3 3 3 3 3 4 4 5 6 6 7 7 6 5 6 6 5 7 8 9 8 8 8 7 6 6 5 5 6 6 6 7 8 11 14 14 14 13 12 11 10
4 4 3 4 4 4 4 4 3 4 4 4 6 6 4 2 3 3 3 5 5 5 4 5 4 5 5 6 6 4 4 4 5 6 9 13 15 15 15 15 14 13 12
5 4 3 4 4 3 3 3 4 3 4 5 5 5 4 2 3 2 3 3 4 4 3 3 3 4 4 4 4 4 4 4 5 6 8 13 16 16 16 16 15 14 13
5 4 2 3 3 3 3 3 3 4 4 4 4 4 4 2 2 2 3 3 3 4 4 4 4 4 4 4 4 3 4 4 4 4 7 11 17 18 18 17 16 15 14
5 4 3 3 3 4 4 4 4 5 5 4 4 6 5 4 3 2 2 3 3 4 4 3 3 3 4 4 4 4 3 3 3 3 5 8 12 17 18 18 17 16 16
6 4 2 3 4 4 3 3 3 4 4 4 5 6 6 6 5 2 2 3 3 3 2 3 3 3 4 4 3 4 3 2 2 3 5 7 9 11 15 18 18 17 17
6 5 3 3 3 3 4 3 4 4 4 4 5 5 6 7 7 3 2 3 3 2 2 3 2 3 3 4 4 4 4 3 2 3 4 6 8 10 11 16 19 18 18
6 5 4 3 3 3 3 3 4 5 4 4 4 4 6 6 7 5 2 4 3 2 2 2 2 2 3 3 4 4 4 4 3 3 5 4 6 9 11 12 14 16 19
5 5 4 3 2 2 2 2 3 3 3 4 3 5 6 6 6 4 4 4 4 2 3 3 2 2 2 1 1 2 3 4 4 4 4 4 6 8 10 11 12 12 14
6 5 4 4 2 1 0 0 1 2 2 2 3 4 6 6 6 4 4 4 4 3 4 3 1 1 2 1 1 0 2 2 3 5 5 5 6 5 7 11 12 13 13
6 6 5 4 3 1 1 1 2 3 3 4 4 4 5 6 5 4 4 4 4 3 3 3 2 1 2 2 2 2 2 3 2 2 4 5 5 5 6 6 10 13 14
7 6 5 5 3 2 1 2 1 1 2 3 3 4 5 6 5 5 4 4 4 3 3 3 2 1 1 2 1 2 3 2 1 2 2 2 5 6 6 7 8 10 14
7 6 6 5 3 2 1 1 1 0 2 2 3 4 5 5 5 5 4 4 4 3 3 4 3 2 1 2 2 1 1 1 2 2 3 2 2 3 4 5 6 6 12
6 6 5 5 3 3 1 1 1 1 1 2 3 4 4 4 4 5 4 4 4 3 4 3 3 3 2 2 2 2 2 2 2 3 4 3 3 3 3 4 5 6 8
Wind_Direction
164 168 156 143 134 126 122 120 121 121 121 118 115 113 108 102 97 92 89 85 80 77 74 70 66 63 63 61 59 61 62 65 68 74 81 85 83 83 89 96 95 95 98
161 165 155 145 139 132 127 126 127 127 127 128 126 124 121 117 112 107 99 92 88 84 80 76 70 64 62 59 56 52 51 50 53 62 81 88 92 92 96 101 102 102 104
139 149 148 145 141 139 137 135 135 136 137 140 143 144 140 136 133 129 121 113 107 97 88 82 77 66 64 58 49 40 35 30 30 34 84 119 117 107 108 108 107 107 108
129 135 140 139 138 140 144 145 147 151 154 158 164 167 166 164 162 163 168 159 148 137 117 96 83 65 54 46 35 20 12 9 10 18 97 161 151 127 122 116 114 113 114
119 122 130 132 135 138 143 151 157 164 172 175 179 186 192 193 193 198 203 203 200 194 186 172 170 207 321 349 340 337 341 347 0 17 89 161 154 144 135 126 121 122 122
118 124 132 133 136 141 147 157 171 182 193 200 203 206 209 209 210 213 218 219 219 215 214 209 206 218 242 265 283 299 312 328 350 9 138 161 160 155 145 136 127 129 130
129 134 138 140 145 153 158 167 186 205 216 222 223 223 221 222 222 220 221 223 222 223 222 217 213 221 236 249 263 279 294 310 329 0 167 170 169 160 154 148 141 136 133
131 132 133 137 143 159 173 189 207 226 241 242 240 238 235 234 234 231 227 226 223 225 227 221 215 221 232 240 249 261 275 290 312 357 215 190 182 168 159 152 149 144 143
115 112 102 91 74 336 246 247 249 253 260 262 256 251 248 246 245 244 241 235 229 227 227 225 218 221 228 236 242 250 260 271 280 275 240 201 195 176 165 158 154 155 156
111 115 120 110 70 24 331 307 294 280 277 278 274 266 258 257 257 255 254 247 241 236 230 227 224 224 228 234 239 245 252 260 263 259 241 213 200 180 170 162 158 159 160
101 90 95 82 50 357 319 314 309 296 291 290 289 281 278 269 264 262 262 260 251 243 235 230 231 231 231 234 238 244 249 244 246 248 237 224 202 184 175 168 165 163 161
107 84 69 73 52 19 360 340 316 304 299 291 284 284 283 274 267 266 268 267 261 250 239 233 233 237 234 230 238 247 244 237 237 241 239 226 203 189 179 173 170 169 166
118 83 70 69 50 34 8 350 327 315 307 297 285 282 281 282 280 277 276 281 277 260 242 236 236 233 225 220 227 237 240 233 232 240 239 225 206 194 184 177 174 173 170
103 92 72 66 52 34 24 358 347 334 319 307 299 296 283 277 277 277 269 271 270 261 240 232 231 229 225 222 222 229 236 227 233 240 238 225 211 202 191 183 179 177 175
114 114 91 75 61 38 23 354 360 341 336 331 328 326 308 277 278 270 270 271 267 258 243 232 226 228 226 223 225 226 223 223 235 240 234 222 215 207 197 189 184 181 180
131 134 112 87 68 45 19 353 338 345 349 0 1 352 347 324 296 282 283 273 266 258 246 230 226 226 232 228 232 231 233 226 228 237 229 224 216 208 201 195 188 185 184
142 139 133 111 67 45 19 357 358 354 2 4 359 3 7 5 349 317 293 288 281 274 259 247 239 229 233 230 234 240 233 224 211 225 228 222 216 211 207 200 192 188 188
133 128 103 89 73 53 33 7 358 3 6 3 6 10 8 6 2 351 325 304 302 294 267 255 237 233 236 231 233 242 234 223 202 216 229 229 218 213 213 207 197 192 192
137 133 118 100 82 61 33 11 3 0 3 360 7 10 5 5 7 1 331 312 317 310 288 278 250 232 239 240 236 241 233 221 219 224 215 224 219 216 213 212 204 197 196
129 127 119 94 77 66 33 13 3 358 354 357 355 354 0 1 360 1 343 339 338 333 315 298 275 252 237 237 251 249 233 223 212 221 220 217 216 219 216 211 207 204 202
114 111 111 94 80 66 38 15 358 343 335 343 341 352 355 355 353 352 350 345 346 337 311 303 288 277 260 215 240 282 268 230 218 224 219 215 218 216 211 210 206 200 205
130 122 118 115 114 95 86 275 274 293 300 309 327 341 347 347 344 345 348 338 339 338 338 334 328 302 277 188 173 237 301 308 251 229 215 219 223 210 208 211 207 201 200
141 146 140 141 134 123 83 37 9 6 352 350 343 338 326 334 339 338 335 336 342 345 330 322 316 271 270 266 196 183 197 242 283 272 229 228 224 214 211 204 205 206 203
165 160 152 155 158 163 109 77 56 12 327 298 301 316 323 333 338 341 340 342 342 340 329 316 328 286 235 252 263 228 217 189 219 306 297 245 230 221 212 211 208 206 206
171 168 168 165 182 200 168 140 133 252 275 301 321 338 339 336 337 338 341 343 338 331 322 317 326 314 259 224 220 229 242 224 200 210 270 294 282 245 220 215 206 203 205
176 175 174 174 201 220 208 141 157 200 272 338 334 337 335 332 330 332 331 337 331 324 316 314 318 318 292 263 242 217 204 208 206 199 232 257 268 266 244 224 212 207 205
Height
1539 1539 1540 1541 1541 1542 1542 1542 1543 1543 1543 1544 1544 1544 1544 1544 1545 1545 1545 1545 1545 1545 1544 1544 1544 1544 1544 1544 1544 1543 1543 1543 1542 1542 1542 1542 1541 1541 1541 1541 1540 1540 1540
1538 1539 1540 1540 1541 1542 1542 1542 1543 1543 1543 1543 1543 1543 1544 1544 1544 1544 1544 1544 1544 1544 1544 1544 1544 1544 1544 1544 1544 1543 1543 1543 1543 1543 1542 1542 1542 1542 1541 1541 1541 1541 1541
1538 1538 1539 1540 1541 1541 1542 1542 1542 1542 1542 1542 1543 1543 1543 1543 1543 1543 1543 1543 1543 1543 1543 1543 1543 1543 1543 1543 1543 1543 1543 1543 1543 1543 1543 1542 1542 1542 1542 1542 1541 1542 1542
1538 1538 1539 1540 1540 1541 1541 1541 1541 1542 1542 1542 1542 1542 1542 1542 1542 1542 1542 1542 1542 1542 1542 1542 1543 1543 1543 1543 1543 1543 1543 1543 1543 1543 1543 1542 1542 1542 1542 1542 1542 1542 1542
1538 1538 1539 1539 1539 1540 1540 1540 1540 1540 1540 1540 1540 1541 1541 1541 1541 1541 1541 1541 1541 1541 1541 1541 1541 1542 1542 1542 1542 1543 1543 1543 1543 1543 1543 1542 1542 1542 1542 1542 1542 1542 1543
1538 1538 1539 1539 1539 1539 1539 1539 1539 1539 1539 1539 1539 1539 1539 1539 1539 1539 1539 1539 1539 1540 1540 1540 1540 1540 1541 1541 1541 1542 1542 1542 1542 1542 1543 1542 1542 1542 1542 1542 1542 1542 1543
1539 1539 1538 1538 1538 1538 1538 1537 1537 1537 1537 1537 1537 1537 1537 1537 1537 1537 1537 1537 1537 1538 1538 1538 1539 1539 1539 1540 1540 1541 1541 1542 1542 1542 1542 1542 1542 1542 1542 1542 1542 1543 1543
1539 1539 1538 1538 1537 1537 1536 1536 1535 1535 1535 1534 1534 1534 1534 1534 1534 1535 1535 1535 1535 1535 1536 1536 1536 1537 1538 1538 1539 1539 1540 1541 1541 1541 1542 1541 1542 1542 1542 1542 1542 1543 1543
1539 1538 1538 1537 1536 1536 1535 1534 1534 1533 1532 1532 1532 1531 1531 1532 1532 1532 1532 1532 1533 1533 1533 1534 1534 1535 1536 1536 1537 1538 1538 1539 1540 1540 1541 1541 1541 1541 1542 1542 1542 1542 1543
1539 1538 1537 1536 1535 1534 1533 1532 1532 1531 1530 1529 1529 1528 1528 1528 1528 1529 1529 1529 1530 1530 1531 1532 1532 1533 1533 1534 1535 1536 1537 1537 1538 1539 1539 1540 1540 1541 1541 1542 1542 1542 1543
1538 1537 1536 1535 1534 1533 1532 1531 1530 1529 1528 1527 1526 1526 1525 1525 1525 1526 1526 1526 1527 1527 1528 1529 1529 1530 1531 1532 1533 1534 1534 1535 1536 1537 1538 1539 1540 1540 1541 1541 1541 1542 1543
1538 1536 1535 1534 1533 1531 1530 1529 1528 1527 1525 1525 1524 1523 1523 1522 1522 1522 1522 1523 1523 1524 1525 1525 1526 1527 1528 1529 1530 1531 1532 1533 1534 1535 1536 1537 1538 1539 1540 1540 1541 1541 1542
1537 1535 1534 1533 1531 1530 1528 1527 1525 1524 1523 1522 1522 1521 1520 1519 1519 1519 1519 1519 1520 1521 1521 1522 1523 1524 1525 1526 1528 1529 1530 1531 1532 1533 1534 1536 1537 1538 1539 1539 1540 1540 1541
1535 1534 1533 1531 1530 1528 1526 1525 1523 1522 1521 1520 1519 1518 1518 1517 1517 1516 1516 1516 1517 1517 1517 1518 1519 1521 1522 1523 1525 1526 1527 1529 1530 1531 1532 1534 1535 1536 1537 1538 1539 1539 1540
1533 1532 1531 1530 1528 1526 1524 1523 1521 1520 1519 1518 1517 1516 1515 1515 1514 1514 1514 1514 1513 1514 1514 1515 1516 1517 1519 1521 1522 1523 1525 1526 1527 1529 1530 1531 1533 1535 1536 1537 1538 1538 1539
1532 1531 1530 1528 1526 1525 1523 1521 1519 1518 1517 1516 1515 1514 1513 1512 1512 1511 1511 1511 1511 1511 1511 1512 1513 1514 1515 1517 1518 1520 1521 1523 1525 1526 1528 1529 1531 1533 1534 1535 1536 1537 1538
1530 1530 1528 1527 1525 1523 1521 1519 1518 1516 1515 1514 1513 1512 1511 1510 1509 1509 1508 1508 1508 1508 1508 1509 1509 1511 1512 1513 1515 1516 1518 1519 1521 1523 1525 1527 1529 1531 1532 1534 1535 1535 1537
1529 1528 1527 1526 1524 1522 1520 1518 1516 1515 1513 1512 1511 1510 1509 1508 1507 1506 1506 1505 1505 1505 1505 1506 1506 1507 1508 1509 1511 1513 1514 1516 1517 1520 1521 1524 1526 1528 1530 1531 1533 1534 1535
1528 1527 1526 1525 1523 1521 1519 1517 1515 1514 1512 1511 1510 1508 1507 1506 1504 1503 1503 1502 1502 1502 1502 1502 1503 1504 1505 1506 1508 1509 1510 1512 1514 1516 1518 1520 1523 1525 1527 1529 1531 1532 1533
1527 1526 1525 1524 1522 1520 1518 1516 1515 1513 1511 1510 1509 1507 1506 1504 1503 1501 1501 1500 1499 1499 1499 1500 1500 1501 1502 1503 1504 1505 1506 1508 1510 1512 1515 1517 1519 1522 1524 1526 1528 1529 1531
1526 1525 1524 1523 1521 1519 1517 1515 1514 1512 1511 1509 1508 1506 1505 1503 1501 1500 1499 1498 1497 1497 1497 1497 1497 1498 1499 1500 1501 1502 1503 1504 1506 1508 1511 1513 1516 1518 1521 1523 1525 1527 1528
1525 1524 1523 1521 1520 1518 1516 1515 1513 1512 1510 1509 1507 1506 1504 1502 1500 1499 1497 1496 1495 1495 1495 1495 1495 1495 1496 1497 1498 1499 1500 1502 1502 1504 1507 1509 1512 1515 1517 1519 1521 1523 1525
1524 1523 1522 1521 1519 1518 1516 1515 1513 1512 1510 1508 1507 1505 1503 1501 1499 1498 1496 1495 1494 1493 1493 1493 1493 1493 1494 1495 1496 1498 1499 1498 1499 1501 1502 1505 1508 1510 1513 1515 1517 1520 1522
1522 1522 1521 1520 1519 1517 1516 1514 1513 1511 1509 1508 1506 1504 1502 1501 1499 1497 1495 1494 1493 1492 1491 1491 1491 1491 1492 1492 1494 1495 1497 1497 1499 1498 1499 1501 1504 1506 1508 1510 1513 1515 1518
1521 1521 1520 1519 1518 1517 1515 1514 1512 1511 1509 1508 1506 1504 1502 1500 1498 1496 1494 1493 1492 1491 1490 1489 1489 1489 1489 1490 1491 1492 1493 1495 1496 1497 1497 1499 1500 1502 1504 1506 1508 1511 1514
1520 1520 1519 1518 1517 1516 1515 1513 1512 1510 1509 1507 1505 1503 1501 1499 1497 1495 1494 1492 1491 1489 1489 1488 1487 1487 1487 1488 1488 1489 1490 1491 1493 1494 1495 1495 1496 1498 1500 1501 1504 1506 1509